TimePDT,TemperatureF,Dew PointF,Humidity,Sea Level PressureIn,VisibilityMPH,Wind Direction,Wind SpeedMPH,Gust SpeedMPH,PrecipitationIn,Events,Conditions,WindDirDegrees,DateUTC
12:53 AM,55.9,35.1,45,29.94,10.0,SSE,9.2,-,N/A,,Clear,160,2011-10-01 07:53:00
1:53 AM,55.9,34.0,44,29.95,10.0,SSE,9.2,-,N/A,,Clear,150,2011-10-01 08:53:00
2:53 AM,60.1,37.0,42,29.92,10.0,South,9.2,-,N/A,,Clear,180,2011-10-01 09:53:00
3:53 AM,59.0,37.0,44,29.91,10.0,SSW,11.5,-,N/A,,Clear,200,2011-10-01 10:53:00
4:53 AM,55.0,37.0,51,29.94,10.0,SSW,10.4,-,N/A,,Clear,200,2011-10-01 11:53:00
5:53 AM,54.0,37.0,53,29.94,10.0,South,9.2,-,N/A,,Clear,190,2011-10-01 12:53:00
6:53 AM,55.0,37.9,53,29.95,10.0,SSW,11.5,-,N/A,,Clear,200,2011-10-01 13:53:00
7:53 AM,60.1,39.0,46,29.95,10.0,SSW,6.9,-,N/A,,Clear,200,2011-10-01 14:53:00
8:53 AM,66.9,41.0,39,29.95,10.0,South,13.8,18.4,N/A,,Clear,180,2011-10-01 15:53:00
9:53 AM,70.0,39.0,32,29.96,10.0,South,16.1,25.3,N/A,,Clear,170,2011-10-01 16:53:00
10:53 AM,73.0,36.0,26,29.96,10.0,SSW,13.8,25.3,N/A,,Partly Cloudy,200,2011-10-01 17:53:00
11:53 AM,73.9,37.0,26,29.96,10.0,South,17.3,31.1,N/A,,Partly Cloudy,190,2011-10-01 18:53:00
12:53 PM,75.0,36.0,24,29.93,10.0,South,17.3,28.8,N/A,,Partly Cloudy,180,2011-10-01 19:53:00
1:53 PM,75.0,36.0,24,29.91,10.0,South,12.7,21.9,N/A,,Mostly Cloudy,170,2011-10-01 20:53:00
2:53 PM,73.9,35.1,24,29.89,10.0,SW,12.7,20.7,N/A,,Mostly Cloudy,220,2011-10-01 21:53:00
3:53 PM,71.1,36.0,28,29.90,10.0,SW,16.1,19.6,N/A,,Overcast,220,2011-10-01 22:53:00
4:53 PM,72.0,37.0,28,29.89,10.0,SW,3.5,-,N/A,,Partly Cloudy,230,2011-10-01 23:53:00
5:21 PM,71.6,35.6,27,30.15,10.0,SSE,16.1,23.0,N/A,,Scattered Clouds,160,2011-10-02 00:21:00
5:53 PM,70.0,36.0,29,29.90,10.0,SSE,12.7,-,N/A,,Scattered Clouds,160,2011-10-02 00:53:00
6:53 PM,60.1,36.0,41,29.94,10.0,South,8.1,-,N/A,,Clear,180,2011-10-02 01:53:00
7:00 PM,-9999,-9999,N/A,-9999,-9999.0,North,-9999.0,-,N/A,,Unknown,0,2011-10-02 02:00:00
7:53 PM,60.1,37.0,42,29.94,10.0,South,9.2,-,N/A,,Clear,190,2011-10-02 02:53:00
8:53 PM,57.9,37.0,46,29.93,10.0,SSW,10.4,-,N/A,,Clear,200,2011-10-02 03:53:00
9:53 PM,57.9,37.0,46,29.93,10.0,SSW,12.7,-,N/A,,Clear,200,2011-10-02 04:53:00
10:53 PM,60.1,37.0,42,29.92,10.0,SSW,13.8,-,N/A,,Clear,200,2011-10-02 05:53:00
11:53 PM,55.0,37.0,51,29.93,10.0,South,10.4,-,N/A,,Partly Cloudy,180,2011-10-02 06:53:00